IBE04VL LEVX-LEMD

Flight info

Callsign IBE04VL
Flight time 0h 49m
Altitude 30000
Route BEDAL Z406 ZMR
Aircraft A320/M-SDE3FGHIRWY/LB1

Departure

Time 2026-05-05 08:53
Airport Vigo Airport (LEVX)

Arrival

Time 2026-05-05 09:42
Airport Adolfo Suárez Madrid–Barajas Airport (LEMD)
Time Latitude Longitude Altitude Speed Heading
2026-05-05 08:27 42.22509 -8.63186 843 ft 0 kts 281°
2026-05-05 08:43 42.22508 -8.63179 843 ft 4 kts 281°
2026-05-05 08:43 42.22505 -8.63143 839 ft 4 kts 272°
2026-05-05 08:43 42.22506 -8.63107 833 ft 4 kts 255°
2026-05-05 08:44 42.22517 -8.63079 834 ft 4 kts 199°
2026-05-05 08:44 42.22526 -8.63075 836 ft 0 kts 191°
2026-05-05 08:46 42.22525 -8.63075 836 ft 1 kts 191°
2026-05-05 08:46 42.22508 -8.63080 837 ft 3 kts 191°
2026-05-05 08:47 42.22499 -8.63082 834 ft 1 kts 191°
2026-05-05 08:47 42.22463 -8.63092 843 ft 10 kts 191°
2026-05-05 08:47 42.22371 -8.63117 833 ft 15 kts 191°
2026-05-05 08:47 42.22272 -8.63143 843 ft 14 kts 191°
2026-05-05 08:48 42.22173 -8.63170 833 ft 15 kts 191°
2026-05-05 08:48 42.22106 -8.63101 838 ft 13 kts 90°
2026-05-05 08:48 42.22153 -8.62990 831 ft 14 kts 39°
2026-05-05 08:48 42.22251 -8.62934 831 ft 17 kts 18°
2026-05-05 08:49 42.22375 -8.62898 839 ft 20 kts 11°
2026-05-05 08:49 42.22521 -8.62860 835 ft 22 kts 11°
2026-05-05 08:49 42.22674 -8.62814 840 ft 23 kts 12°
2026-05-05 08:49 42.22836 -8.62770 836 ft 24 kts 11°
2026-05-05 08:50 42.23006 -8.62725 845 ft 27 kts 11°
2026-05-05 08:50 42.23203 -8.62671 840 ft 31 kts
2026-05-05 08:50 42.23422 -8.62617 835 ft 33 kts 12°
2026-05-05 08:50 42.23649 -8.62551 837 ft 34 kts 12°
2026-05-05 08:51 42.23881 -8.62491 835 ft 34 kts 11°
2026-05-05 08:51 42.24111 -8.62429 843 ft 32 kts 10°
2026-05-05 08:51 42.24221 -8.62448 844 ft 13 kts
2026-05-05 08:51 42.24210 -8.62395 844 ft 7 kts 186°
2026-05-05 08:52 42.24160 -8.62410 835 ft 10 kts 192°
2026-05-05 08:52 42.23907 -8.62481 840 ft 74 kts 192°
2026-05-05 08:52 42.23192 -8.62674 844 ft 132 kts 193°
2026-05-05 08:52 42.22212 -8.62945 1305 ft 146 kts 191°
2026-05-05 08:53 42.21206 -8.63194 1994 ft 156 kts 193°
2026-05-05 08:53 42.20059 -8.63504 2583 ft 171 kts 193°
2026-05-05 08:53 42.18856 -8.63834 2976 ft 187 kts 194°
2026-05-05 08:53 42.17524 -8.64224 3119 ft 211 kts 194°
2026-05-05 08:54 42.16021 -8.64668 3496 ft 226 kts 193°
2026-05-05 08:54 42.14434 -8.65099 4122 ft 232 kts 193°
2026-05-05 08:54 42.12837 -8.65310 4972 ft 233 kts 172°
2026-05-05 08:54 42.11395 -8.64343 5642 ft 238 kts 131°
2026-05-05 08:55 42.10714 -8.62358 6317 ft 237 kts 90°
2026-05-05 08:55 42.11105 -8.60266 6960 ft 232 kts 51°
2026-05-05 08:55 42.12176 -8.58661 7669 ft 230 kts 39°
2026-05-05 08:55 42.13383 -8.57241 8425 ft 231 kts 36°
2026-05-05 08:56 42.14608 -8.55822 9178 ft 234 kts 37°
2026-05-05 08:56 42.15821 -8.54348 9963 ft 237 kts 38°
2026-05-05 08:56 42.17018 -8.52810 10686 ft 239 kts 40°
2026-05-05 08:56 42.18200 -8.51222 11407 ft 241 kts 40°
2026-05-05 08:57 42.19381 -8.49591 12145 ft 244 kts 41°
2026-05-05 08:57 42.20543 -8.47957 12874 ft 246 kts 41°
2026-05-05 08:57 42.21726 -8.46274 13590 ft 249 kts 42°
2026-05-05 08:57 42.22907 -8.44543 14249 ft 253 kts 47°
2026-05-05 08:58 42.23666 -8.42272 14464 ft 286 kts 79°
2026-05-05 08:58 42.23412 -8.39483 14631 ft 316 kts 105°
2026-05-05 08:58 42.22632 -8.36591 14762 ft 339 kts 106°
2026-05-05 08:58 42.21980 -8.33436 14887 ft 358 kts 101°
2026-05-05 08:59 42.21446 -8.30055 15009 ft 377 kts 97°
2026-05-05 08:59 42.21027 -8.26504 15330 ft 387 kts 95°
2026-05-05 08:59 42.20692 -8.22871 15866 ft 392 kts 94°
2026-05-05 08:59 42.20400 -8.19203 16425 ft 395 kts 93°
2026-05-05 09:00 42.20212 -8.16747 16807 ft 398 kts 93°
2026-05-05 09:00 42.19913 -8.13026 17374 ft 402 kts 95°
2026-05-05 09:00 42.19247 -8.09335 17923 ft 408 kts 106°
2026-05-05 09:00 42.18029 -8.04504 18611 ft 413 kts 107°
2026-05-05 09:01 42.17080 -8.00834 19092 ft 416 kts 107°
2026-05-05 09:01 42.16428 -7.98341 19435 ft 418 kts 107°
2026-05-05 09:01 42.15460 -7.94647 19932 ft 420 kts 107°
2026-05-05 09:01 42.14487 -7.90920 20423 ft 423 kts 107°
2026-05-05 09:02 42.13513 -7.87172 20910 ft 425 kts 107°
2026-05-05 09:02 42.12536 -7.83395 21377 ft 428 kts 107°
2026-05-05 09:02 42.11551 -7.79599 21832 ft 430 kts 107°
2026-05-05 09:02 42.10561 -7.75791 22271 ft 433 kts 107°
2026-05-05 09:03 42.09565 -7.71951 22716 ft 436 kts 107°
2026-05-05 09:03 42.08563 -7.68089 23152 ft 438 kts 107°
2026-05-05 09:03 42.07555 -7.64205 23595 ft 441 kts 107°
2026-05-05 09:03 42.06539 -7.60302 23953 ft 443 kts 108°
2026-05-05 09:04 42.05510 -7.56379 24285 ft 446 kts 108°
2026-05-05 09:04 42.04471 -7.52433 24616 ft 449 kts 108°
2026-05-05 09:04 42.03422 -7.48460 24934 ft 452 kts 108°
2026-05-05 09:04 42.02368 -7.44465 25241 ft 455 kts 108°
2026-05-05 09:05 42.01309 -7.40445 25564 ft 457 kts 108°
2026-05-05 09:05 42.00241 -7.36401 25875 ft 460 kts 108°
2026-05-05 09:05 41.99167 -7.32325 26186 ft 463 kts 108°
2026-05-05 09:05 41.98098 -7.28276 26495 ft 466 kts 109°
2026-05-05 09:06 41.97006 -7.24150 26778 ft 469 kts 109°
2026-05-05 09:06 41.95903 -7.20010 27065 ft 472 kts 109°
2026-05-05 09:06 41.94792 -7.15850 27343 ft 474 kts 109°
2026-05-05 09:06 41.93671 -7.11658 27614 ft 477 kts 109°
2026-05-05 09:07 41.92548 -7.07459 27883 ft 479 kts 109°
2026-05-05 09:07 41.91418 -7.03235 28151 ft 482 kts 109°
2026-05-05 09:07 41.90284 -6.98988 28415 ft 484 kts 109°
2026-05-05 09:07 41.89141 -6.94722 28669 ft 487 kts 109°
2026-05-05 09:08 41.87988 -6.90437 28923 ft 489 kts 110°
2026-05-05 09:08 41.86826 -6.86137 29201 ft 491 kts 110°
2026-05-05 09:08 41.85664 -6.81837 29606 ft 490 kts 110°
2026-05-05 09:08 41.84501 -6.77540 29958 ft 490 kts 110°
2026-05-05 09:09 41.83335 -6.73246 30054 ft 489 kts 110°
2026-05-05 09:09 41.81014 -6.64715 30055 ft 486 kts 110°
2026-05-05 09:10 41.78698 -6.56216 30048 ft 486 kts 110°
2026-05-05 09:10 41.76370 -6.47711 30049 ft 486 kts 111°
2026-05-05 09:11 41.74029 -6.39206 30047 ft 487 kts 111°
2026-05-05 09:11 41.71681 -6.30701 30044 ft 487 kts 111°
2026-05-05 09:12 41.69334 -6.22208 30039 ft 487 kts 111°
2026-05-05 09:12 41.66978 -6.13713 30033 ft 487 kts 111°
2026-05-05 09:13 41.64610 -6.05219 30025 ft 487 kts 111°
2026-05-05 09:13 41.62243 -5.96730 30023 ft 488 kts 112°
2026-05-05 09:14 41.59865 -5.88234 30019 ft 488 kts 112°
2026-05-05 09:14 41.57493 -5.79802 30016 ft 488 kts 112°
2026-05-05 09:15 41.55096 -5.71314 30016 ft 489 kts 112°
2026-05-05 09:15 41.51898 -5.63382 30013 ft 484 kts 130°
2026-05-05 09:16 41.47290 -5.56955 30014 ft 479 kts 141°
2026-05-05 09:16 41.42375 -5.50946 30012 ft 479 kts 141°
2026-05-05 09:17 41.37461 -5.44946 30012 ft 479 kts 141°
2026-05-05 09:17 41.32536 -5.38961 30017 ft 479 kts 142°
2026-05-05 09:18 41.27616 -5.32978 30019 ft 479 kts 142°
2026-05-05 09:18 41.22692 -5.26995 30022 ft 479 kts 142°
2026-05-05 09:19 41.17761 -5.21030 30019 ft 480 kts 142°
2026-05-05 09:19 41.12830 -5.15072 30025 ft 480 kts 143°
2026-05-05 09:20 41.07885 -5.09118 30025 ft 480 kts 143°
2026-05-05 09:20 41.02935 -5.03168 30025 ft 480 kts 143°
2026-05-05 09:21 40.97979 -4.97230 30024 ft 480 kts 144°
2026-05-05 09:21 40.93051 -4.91340 30025 ft 480 kts 144°
2026-05-05 09:21 40.90568 -4.88372 29390 ft 480 kts 144°
2026-05-05 09:22 40.88094 -4.85410 28521 ft 478 kts 144°
2026-05-05 09:22 40.85641 -4.82473 27805 ft 474 kts 143°
2026-05-05 09:22 40.83207 -4.79568 27064 ft 471 kts 143°
2026-05-05 09:22 40.80775 -4.76676 26325 ft 468 kts 143°
2026-05-05 09:23 40.78359 -4.73809 25596 ft 466 kts 143°
2026-05-05 09:23 40.75953 -4.70954 24876 ft 464 kts 143°
2026-05-05 09:23 40.73557 -4.68116 24182 ft 462 kts 143°
2026-05-05 09:23 40.71170 -4.65290 23456 ft 460 kts 143°
2026-05-05 09:24 40.68797 -4.62479 22725 ft 457 kts 143°
2026-05-05 09:24 40.66445 -4.59693 22077 ft 451 kts 143°
2026-05-05 09:24 40.64117 -4.56943 21453 ft 447 kts 143°
2026-05-05 09:24 40.61862 -4.54132 20836 ft 446 kts 137°
2026-05-05 09:25 40.59787 -4.51133 20349 ft 440 kts 136°
2026-05-05 09:25 40.57738 -4.48170 19840 ft 434 kts 136°
2026-05-05 09:25 40.55738 -4.45286 19339 ft 429 kts 136°
2026-05-05 09:25 40.53709 -4.42368 18842 ft 425 kts 136°
2026-05-05 09:26 40.51748 -4.39552 18358 ft 421 kts 136°
2026-05-05 09:26 40.49754 -4.36695 17818 ft 417 kts 136°
2026-05-05 09:26 40.47820 -4.33931 17336 ft 413 kts 136°
2026-05-05 09:26 40.45881 -4.31168 16863 ft 410 kts 136°
2026-05-05 09:27 40.43957 -4.28426 16386 ft 407 kts 136°
2026-05-05 09:27 40.42046 -4.25698 15911 ft 404 kts 135°
2026-05-05 09:27 40.40147 -4.22988 15432 ft 401 kts 135°
2026-05-05 09:27 40.38273 -4.20312 14977 ft 398 kts 135°
2026-05-05 09:28 40.36393 -4.17627 14520 ft 396 kts 134°
2026-05-05 09:28 40.34744 -4.14729 14050 ft 396 kts 123°
2026-05-05 09:28 40.33514 -4.11495 13340 ft 400 kts 112°
2026-05-05 09:28 40.32635 -4.08021 12627 ft 400 kts 109°
2026-05-05 09:29 40.31776 -4.04545 11926 ft 400 kts 109°
2026-05-05 09:29 40.30915 -4.01087 11360 ft 396 kts 109°
2026-05-05 09:29 40.30077 -3.97741 11002 ft 386 kts 109°
2026-05-05 09:29 40.29251 -3.94469 10876 ft 368 kts 109°
2026-05-05 09:30 40.28475 -3.91403 10743 ft 341 kts 109°
2026-05-05 09:30 40.27757 -3.88560 10604 ft 317 kts 109°
2026-05-05 09:30 40.27079 -3.85872 10234 ft 305 kts 109°
2026-05-05 09:30 40.26418 -3.83250 9870 ft 299 kts 109°
2026-05-05 09:31 40.25772 -3.80701 9739 ft 298 kts 109°
2026-05-05 09:31 40.25117 -3.78123 9599 ft 297 kts 109°
2026-05-05 09:31 40.24465 -3.75556 9365 ft 296 kts 109°
2026-05-05 09:31 40.23816 -3.72998 9034 ft 295 kts 109°
2026-05-05 09:32 40.23173 -3.70462 8690 ft 293 kts 109°
2026-05-05 09:32 40.22533 -3.67937 8358 ft 291 kts 109°
2026-05-05 09:32 40.21894 -3.65424 8019 ft 290 kts 109°
2026-05-05 09:32 40.21263 -3.62953 7686 ft 288 kts 109°
2026-05-05 09:33 40.20627 -3.60471 7349 ft 287 kts 109°
2026-05-05 09:33 40.19998 -3.58015 7025 ft 285 kts 109°
2026-05-05 09:33 40.19369 -3.55555 6684 ft 284 kts 109°
2026-05-05 09:33 40.18741 -3.53105 6350 ft 283 kts 110°
2026-05-05 09:34 40.18128 -3.50707 6174 ft 272 kts 109°
2026-05-05 09:34 40.17714 -3.48343 6057 ft 263 kts 92°
2026-05-05 09:34 40.17954 -3.46001 6026 ft 261 kts 70°
2026-05-05 09:34 40.18800 -3.43957 5854 ft 253 kts 49°
2026-05-05 09:35 40.20035 -3.42393 5381 ft 254 kts 40°
2026-05-05 09:35 40.22973 -3.39905 5016 ft 252 kts 26°
2026-05-05 09:35 40.24548 -3.38909 4995 ft 251 kts 15°
2026-05-05 09:36 40.26255 -3.38511 5000 ft 246 kts 359°
2026-05-05 09:36 40.27900 -3.38697 4997 ft 230 kts 349°
2026-05-05 09:36 40.29440 -3.38981 4999 ft 216 kts 345°
2026-05-05 09:36 40.30784 -3.39706 5010 ft 202 kts 323°
2026-05-05 09:37 40.31850 -3.40761 5007 ft 183 kts 320°
2026-05-05 09:37 40.32816 -3.41735 4995 ft 168 kts 320°
2026-05-05 09:37 40.33719 -3.42646 4972 ft 161 kts 319°
2026-05-05 09:37 40.34582 -3.43518 4861 ft 157 kts 319°
2026-05-05 09:38 40.35444 -3.44389 4670 ft 155 kts 320°
2026-05-05 09:38 40.36297 -3.45251 4490 ft 151 kts 319°
2026-05-05 09:38 40.37118 -3.46081 4274 ft 146 kts 319°
2026-05-05 09:38 40.37922 -3.46894 4075 ft 145 kts 319°
2026-05-05 09:39 40.38721 -3.47702 3880 ft 145 kts 319°
2026-05-05 09:39 40.39518 -3.48510 3683 ft 145 kts 319°
2026-05-05 09:39 40.40319 -3.49320 3503 ft 145 kts 319°
2026-05-05 09:39 40.41118 -3.50122 3221 ft 145 kts 320°
2026-05-05 09:40 40.41913 -3.50904 2997 ft 147 kts 319°
2026-05-05 09:40 40.42745 -3.51707 2774 ft 147 kts 319°
2026-05-05 09:40 40.43571 -3.52527 2584 ft 150 kts 309°
2026-05-05 09:40 40.44390 -3.53376 2423 ft 153 kts 326°
2026-05-05 09:41 40.45197 -3.54266 2242 ft 151 kts 321°
2026-05-05 09:41 40.46020 -3.55097 2053 ft 148 kts 321°
2026-05-05 09:41 40.46829 -3.55917 1974 ft 141 kts 320°
2026-05-05 09:41 40.47469 -3.56585 1993 ft 93 kts 323°
2026-05-05 09:42 40.47753 -3.56861 1995 ft 60 kts 322°
2026-05-05 09:42 40.47947 -3.57062 2001 ft 11 kts 323°
2026-05-05 09:42 40.47974 -3.57088 2003 ft 6 kts 323°
2026-05-05 09:42 40.47995 -3.57108 2003 ft 3 kts 323°
2026-05-05 09:43 40.48041 -3.57155 2003 ft 14 kts 321°
2026-05-05 09:43 40.48119 -3.57288 2004 ft 18 kts 301°
2026-05-05 09:43 40.48160 -3.57392 2004 ft 11 kts 296°
2026-05-05 09:43 40.48195 -3.57491 2000 ft 13 kts 293°
2026-05-05 09:44 40.48241 -3.57614 1996 ft 17 kts 307°
2026-05-05 09:44 40.48340 -3.57715 1994 ft 19 kts 322°
2026-05-05 09:44 40.48435 -3.57805 1991 ft 17 kts 325°
2026-05-05 09:44 40.48537 -3.57878 1994 ft 15 kts 332°
2026-05-05 09:45 40.48597 -3.57966 2000 ft 12 kts 278°
2026-05-05 09:45 40.48597 -3.58067 2003 ft 10 kts 269°
2026-05-05 09:45 40.48596 -3.58136 2004 ft 6 kts 269°
2026-05-05 09:45 40.48596 -3.58193 2006 ft 7 kts 269°
2026-05-05 09:46 40.48595 -3.58259 2007 ft 8 kts 270°
2026-05-05 09:46 40.48595 -3.58332 2013 ft 8 kts 270°
2026-05-05 09:46 40.48595 -3.58413 2012 ft 9 kts 270°
2026-05-05 09:46 40.48595 -3.58501 2018 ft 10 kts 269°
2026-05-05 09:47 40.48594 -3.58599 2030 ft 11 kts 270°
2026-05-05 09:47 40.48594 -3.58718 2026 ft 12 kts 270°
2026-05-05 09:47 40.48638 -3.58800 2025 ft 12 kts 16°
2026-05-05 09:47 40.48709 -3.58788 2025 ft 14 kts 329°
2026-05-05 09:48 40.48760 -3.58861 2027 ft 10 kts 311°
2026-05-05 09:48 40.48821 -3.58878 2022 ft 8 kts 358°
2026-05-05 09:48 40.48870 -3.58888 2022 ft 6 kts 322°
2026-05-05 09:48 40.48879 -3.58931 2022 ft 4 kts 270°
2026-05-05 09:49 40.48879 -3.58961 2022 ft 2 kts 271°
2026-05-05 09:49 40.48879 -3.58962 2022 ft 0 kts 271°